SDG090 LICR-LICJ

Flight info

Callsign SDG090
Flight time N/A
Altitude 1000
Route TREMESTIERI CAPOMILAZZO VULCANO LIPARI SALINA POLLARA FILICUDI ALICUDI CEFALU MONDELLO NORDCAPOGALLO NORDOVEST TRAPPETO
Aircraft C172/L-L/C

Departure

Time 2026-04-22 19:11
Airport Reggio Calabria Airport (LICR)

Arrival

Time N/A
Airport Falcone–Borsellino Airport (LICJ)
Time Latitude Longitude Altitude Speed Heading
2026-04-22 19:07 38.07404 15.65272 73 ft 0 kts 118°
2026-04-22 19:09 38.07389 15.65281 72 ft 3 kts 195°
2026-04-22 19:09 38.07368 15.65274 71 ft 3 kts 194°
2026-04-22 19:09 38.07343 15.65252 69 ft 4 kts 251°
2026-04-22 19:09 38.07330 15.65210 68 ft 8 kts 239°
2026-04-22 19:10 38.07296 15.65125 64 ft 10 kts 241°
2026-04-22 19:10 38.07412 15.64964 69 ft 52 kts 332°
2026-04-22 19:10 38.07830 15.64685 147 ft 73 kts 334°
2026-04-22 19:10 38.08238 15.64351 394 ft 62 kts 316°
2026-04-22 19:11 38.08496 15.63989 594 ft 58 kts 302°
2026-04-22 19:11 38.08727 15.63527 733 ft 66 kts 302°
2026-04-22 19:11 38.09000 15.62971 853 ft 79 kts 303°
2026-04-22 19:11 38.09307 15.62345 989 ft 88 kts 304°
2026-04-22 19:12 38.09639 15.61646 1122 ft 94 kts 303°
2026-04-22 19:12 38.09961 15.60950 1243 ft 98 kts 302°
2026-04-22 19:12 38.10306 15.60183 1370 ft 101 kts 302°
2026-04-22 19:12 38.10650 15.59405 1494 ft 102 kts 302°
2026-04-22 19:13 38.10998 15.58607 1620 ft 103 kts 301°
2026-04-22 19:13 38.11342 15.57813 1764 ft 101 kts 301°
2026-04-22 19:13 38.11676 15.57038 1933 ft 98 kts 300°
2026-04-22 19:13 38.12000 15.56282 2102 ft 96 kts 300°
2026-04-22 19:14 38.12321 15.55532 2273 ft 95 kts 300°
2026-04-22 19:14 38.12635 15.54798 2446 ft 93 kts 300°
2026-04-22 19:14 38.12942 15.54079 2614 ft 92 kts 300°
2026-04-22 19:14 38.13242 15.53378 2802 ft 89 kts 299°
2026-04-22 19:15 38.13544 15.52696 2994 ft 86 kts 301°
2026-04-22 19:15 38.13837 15.52049 3184 ft 84 kts 301°
2026-04-22 19:15 38.14125 15.51416 3378 ft 82 kts 301°
2026-04-22 19:15 38.14407 15.50798 3566 ft 80 kts 300°
2026-04-22 19:16 38.14683 15.50190 3737 ft 80 kts 301°
2026-04-22 19:16 38.14962 15.49581 3936 ft 74 kts 300°
2026-04-22 19:16 38.15210 15.49031 4110 ft 70 kts 299°
2026-04-22 19:16 38.15443 15.48512 4263 ft 67 kts 298°
2026-04-22 19:17 38.15689 15.47964 4266 ft 84 kts 300°
2026-04-22 19:17 38.16018 15.47264 4197 ft 96 kts 302°
2026-04-22 19:17 38.16372 15.46524 4103 ft 100 kts 302°
2026-04-22 19:17 38.16743 15.45739 3955 ft 107 kts 302°
2026-04-22 19:18 38.17131 15.44910 3772 ft 111 kts 302°
2026-04-22 19:18 38.17522 15.44069 3635 ft 109 kts 302°
2026-04-22 19:18 38.17899 15.43250 3544 ft 105 kts 301°
2026-04-22 19:18 38.18267 15.42444 3471 ft 105 kts 301°
2026-04-22 19:19 38.18633 15.41640 3399 ft 106 kts 301°
2026-04-22 19:19 38.19011 15.40810 3331 ft 109 kts 301°
2026-04-22 19:19 38.19388 15.39984 3254 ft 104 kts 302°
2026-04-22 19:19 38.19749 15.39201 3172 ft 99 kts 302°
2026-04-22 19:20 38.20089 15.38458 3097 ft 97 kts 302°
2026-04-22 19:20 38.20430 15.37714 3020 ft 96 kts 302°
2026-04-22 19:20 38.20764 15.36983 2946 ft 96 kts 302°
2026-04-22 19:20 38.21104 15.36242 2871 ft 96 kts 302°
2026-04-22 19:21 38.21444 15.35497 2800 ft 96 kts 302°
2026-04-22 19:21 38.21772 15.34775 2764 ft 94 kts 301°
2026-04-22 19:21 38.22101 15.34053 2712 ft 94 kts 301°
2026-04-22 19:21 38.22429 15.33332 2650 ft 95 kts 301°
2026-04-22 19:22 38.22763 15.32601 2577 ft 96 kts 301°
2026-04-22 19:22 38.23101 15.31863 2504 ft 98 kts 301°
2026-04-22 19:22 38.23447 15.31100 2429 ft 100 kts 302°
2026-04-22 19:22 38.23799 15.30329 2375 ft 99 kts 302°
2026-04-22 19:23 38.24141 15.29577 2381 ft 95 kts 301°
2026-04-22 19:23 38.24472 15.28846 2358 ft 98 kts 302°
2026-04-22 19:23 38.24823 15.28076 2370 ft 101 kts 301°
2026-04-22 19:23 38.25179 15.27294 2380 ft 103 kts 301°
2026-04-22 19:24 38.25542 15.26498 2379 ft 105 kts 301°
2026-04-22 19:24 38.25914 15.25683 2379 ft 106 kts 301°
2026-04-22 19:24 38.26284 15.24871 2377 ft 107 kts 301°
2026-04-22 19:24 38.26662 15.24041 2377 ft 107 kts 301°
2026-04-22 19:25 38.27034 15.23215 2379 ft 107 kts 299°
2026-04-22 19:25 38.27367 15.22369 2378 ft 108 kts 297°
2026-04-22 19:25 38.27696 15.21510 2376 ft 107 kts 297°
2026-04-22 19:25 38.28026 15.20649 2378 ft 107 kts 297°
2026-04-22 19:26 38.28356 15.19793 2376 ft 107 kts 298°
2026-04-22 19:26 38.28681 15.18950 2377 ft 107 kts 297°
2026-04-22 19:26 38.29012 15.18092 2374 ft 107 kts 297°
2026-04-22 19:26 38.29342 15.17237 2373 ft 107 kts 297°
2026-04-22 19:27 38.29675 15.16378 2373 ft 107 kts 298°
2026-04-22 19:27 38.30005 15.15528 2370 ft 107 kts 297°
2026-04-22 19:27 38.30336 15.14676 2370 ft 107 kts 297°
2026-04-22 19:27 38.30668 15.13813 2371 ft 108 kts 297°
2026-04-22 19:28 38.30998 15.12955 2372 ft 108 kts 297°
2026-04-22 19:28 38.31324 15.12106 2371 ft 107 kts 297°
2026-04-22 19:28 38.31656 15.11241 2372 ft 107 kts 297°
2026-04-22 19:28 38.31980 15.10398 2374 ft 106 kts 297°
2026-04-22 19:29 38.32307 15.09540 2376 ft 106 kts 297°
2026-04-22 19:29 38.32629 15.08699 2380 ft 106 kts 297°
2026-04-22 19:29 38.32954 15.07849 2379 ft 107 kts 297°
2026-04-22 19:29 38.33284 15.06988 2378 ft 107 kts 298°
2026-04-22 19:30 38.33505 15.06411 2377 ft 107 kts 297°
2026-04-22 19:30 38.33944 15.05269 2378 ft 107 kts 297°
2026-04-22 19:30 38.34270 15.04419 2380 ft 107 kts 297°
2026-04-22 19:30 38.34598 15.03565 2380 ft 107 kts 297°
2026-04-22 19:31 38.34925 15.02708 2382 ft 107 kts 297°
2026-04-22 19:31 38.35254 15.01852 2381 ft 107 kts 297°
2026-04-22 19:31 38.35584 15.00993 2382 ft 110 kts 297°
2026-04-22 19:31 38.35929 15.00090 2380 ft 115 kts 297°
2026-04-22 19:32 38.36295 14.99155 2378 ft 117 kts 301°
2026-04-22 19:32 38.36901 14.98507 2376 ft 115 kts 333°
2026-04-22 19:32 38.37632 14.98071 2371 ft 115 kts 337°
2026-04-22 19:32 38.38373 14.97661 2378 ft 115 kts 338°
2026-04-22 19:33 38.39117 14.97255 2380 ft 116 kts 338°
2026-04-22 19:33 38.39858 14.96853 2378 ft 116 kts 338°
2026-04-22 19:33 38.40612 14.96444 2379 ft 116 kts 338°
2026-04-22 19:33 38.41353 14.96044 2378 ft 116 kts 338°
2026-04-22 19:34 38.42151 14.95846 2378 ft 116 kts 356°
2026-04-22 19:34 38.42956 14.95798 2379 ft 116 kts 358°
2026-04-22 19:34 38.43765 14.95764 2380 ft 116 kts 358°
2026-04-22 19:34 38.44572 14.95731 2382 ft 116 kts 358°
2026-04-22 19:35 38.45387 14.95699 2387 ft 116 kts 358°
2026-04-22 19:35 38.46200 14.95666 2388 ft 116 kts 358°
2026-04-22 19:35 38.46928 14.95272 2383 ft 117 kts 315°
2026-04-22 19:35 38.47276 14.94336 2386 ft 118 kts 285°
2026-04-22 19:36 38.47432 14.93312 2381 ft 119 kts 281°
2026-04-22 19:36 38.47566 14.92269 2382 ft 119 kts 281°
2026-04-22 19:36 38.47694 14.91220 2380 ft 119 kts 280°
2026-04-22 19:36 38.48024 14.90275 2375 ft 117 kts 317°
2026-04-22 19:37 38.48723 14.89795 2380 ft 115 kts 341°
2026-04-22 19:37 38.49488 14.89484 2382 ft 115 kts 344°
2026-04-22 19:37 38.50265 14.89195 2384 ft 116 kts 344°
2026-04-22 19:37 38.51043 14.88912 2383 ft 116 kts 345°
2026-04-22 19:38 38.51827 14.88631 2384 ft 116 kts 345°
2026-04-22 19:38 38.52608 14.88354 2382 ft 116 kts 345°
2026-04-22 19:38 38.53388 14.88079 2384 ft 115 kts 345°
2026-04-22 19:38 38.54158 14.87809 2385 ft 115 kts 345°
2026-04-22 19:39 38.54935 14.87537 2386 ft 115 kts 345°
2026-04-22 19:39 38.55637 14.87076 2384 ft 117 kts 313°
2026-04-22 19:39 38.56044 14.86196 2474 ft 110 kts 296°
2026-04-22 19:39 38.56345 14.85329 2647 ft 103 kts 294°
2026-04-22 19:40 38.56618 14.84506 2810 ft 99 kts 294°
2026-04-22 19:40 38.56889 14.83686 2885 ft 107 kts 294°
2026-04-22 19:40 38.57207 14.82736 2789 ft 120 kts 294°
2026-04-22 19:40 38.57534 14.81767 2768 ft 118 kts 294°
2026-04-22 19:41 38.57795 14.80780 2757 ft 118 kts 276°
2026-04-22 19:41 38.57776 14.79736 2758 ft 117 kts 267°
2026-04-22 19:41 38.57709 14.78716 2756 ft 115 kts 266°
2026-04-22 19:41 38.57640 14.77690 2756 ft 114 kts 266°
2026-04-22 19:42 38.57572 14.76685 2759 ft 113 kts 266°
2026-04-22 19:42 38.57503 14.75681 2762 ft 114 kts 266°
2026-04-22 19:42 38.57432 14.74673 2761 ft 114 kts 266°
2026-04-22 19:42 38.57361 14.73664 2759 ft 114 kts 266°
2026-04-22 19:43 38.57214 14.71646 2760 ft 114 kts 266°
2026-04-22 19:43 38.57140 14.70637 2757 ft 113 kts 266°
2026-04-22 19:43 38.57066 14.69636 2758 ft 113 kts 266°
2026-04-22 19:44 38.56991 14.68622 2757 ft 113 kts 266°
2026-04-22 19:44 38.56918 14.67632 2795 ft 110 kts 266°
2026-04-22 19:44 38.56844 14.66662 2841 ft 108 kts 266°
2026-04-22 19:44 38.56772 14.65710 2887 ft 107 kts 265°
2026-04-22 19:45 38.56699 14.64759 2914 ft 109 kts 266°
2026-04-22 19:45 38.56625 14.63788 2910 ft 111 kts 265°
2026-04-22 19:45 38.56547 14.62791 2910 ft 112 kts 265°
2026-04-22 19:45 38.56470 14.61801 2911 ft 112 kts 265°
2026-04-22 19:46 38.56394 14.60798 2911 ft 113 kts 266°
2026-04-22 19:46 38.56321 14.59799 2911 ft 113 kts 266°
2026-04-22 19:46 38.56248 14.58803 2910 ft 113 kts 266°
2026-04-22 19:46 38.56155 14.57807 2908 ft 113 kts 263°
2026-04-22 19:47 38.56028 14.56800 2907 ft 113 kts 262°
2026-04-22 19:47 38.55901 14.55814 2906 ft 113 kts 262°
2026-04-22 19:47 38.55773 14.54826 2909 ft 112 kts 262°
2026-04-22 19:47 38.55645 14.53837 2909 ft 112 kts 262°
2026-04-22 19:48 38.55519 14.52842 2912 ft 113 kts 263°
2026-04-22 19:48 38.55394 14.51865 2909 ft 113 kts 262°
2026-04-22 19:48 38.55267 14.50875 2909 ft 112 kts 262°
2026-04-22 19:48 38.55140 14.49889 2908 ft 112 kts 262°
2026-04-22 19:49 38.55012 14.48891 2909 ft 112 kts 262°
2026-04-22 19:49 38.54885 14.47912 2909 ft 113 kts 262°
2026-04-22 19:49 38.54756 14.46916 2911 ft 115 kts 262°
2026-04-22 19:49 38.54623 14.45885 2910 ft 118 kts 262°
2026-04-22 19:50 38.54488 14.44847 2908 ft 119 kts 262°
2026-04-22 19:50 38.54353 14.43802 2909 ft 119 kts 262°
2026-04-22 19:50 38.54217 14.42759 2910 ft 120 kts 262°
2026-04-22 19:50 38.54082 14.41714 2908 ft 120 kts 262°
2026-04-22 19:51 38.53944 14.40652 2911 ft 120 kts 262°
2026-04-22 19:51 38.53807 14.39601 2914 ft 120 kts 262°
2026-04-22 19:51 38.53670 14.38550 2913 ft 120 kts 262°
2026-04-22 19:51 38.53534 14.37500 2908 ft 120 kts 262°
2026-04-22 19:52 38.53302 14.36481 2903 ft 121 kts 237°
2026-04-22 19:52 38.52657 14.35790 2906 ft 121 kts 213°
2026-04-22 19:52 38.51926 14.35250 2904 ft 121 kts 210°
2026-04-22 19:52 38.51178 14.34722 2906 ft 122 kts 209°
2026-04-22 19:53 38.50437 14.34200 2901 ft 122 kts 209°
2026-04-22 19:53 38.49685 14.33671 2899 ft 122 kts 208°
2026-04-22 19:53 38.48926 14.33140 2797 ft 128 kts 208°
2026-04-22 19:53 38.48171 14.32607 2664 ft 121 kts 209°
2026-04-22 19:54 38.47437 14.32093 2536 ft 117 kts 208°
2026-04-22 19:54 38.46727 14.31599 2411 ft 115 kts 208°
2026-04-22 19:54 38.46022 14.31111 2287 ft 114 kts 208°
2026-04-22 19:54 38.45322 14.30629 2168 ft 114 kts 208°
2026-04-22 19:55 38.44720 14.29999 2041 ft 113 kts 233°
2026-04-22 19:55 38.44280 14.29152 1917 ft 113 kts 239°
2026-04-22 19:55 38.43881 14.28300 1793 ft 113 kts 240°
2026-04-22 19:55 38.43481 14.27419 1666 ft 113 kts 240°
2026-04-22 19:56 38.43090 14.26539 1541 ft 113 kts 241°
2026-04-22 19:56 38.42706 14.25660 1420 ft 113 kts 242°
2026-04-22 19:56 38.42329 14.24788 1300 ft 114 kts 242°
2026-04-22 19:56 38.41948 14.23899 1177 ft 114 kts 242°
2026-04-22 19:57 38.41569 14.23010 1054 ft 114 kts 242°
2026-04-22 19:57 38.41189 14.22114 930 ft 114 kts 242°
2026-04-22 19:57 38.40811 14.21220 807 ft 114 kts 242°
2026-04-22 19:57 38.40437 14.20333 685 ft 114 kts 242°
2026-04-22 19:58 38.40062 14.19442 565 ft 114 kts 242°
2026-04-22 19:58 38.39687 14.18552 441 ft 114 kts 242°
2026-04-22 19:58 38.39315 14.17667 318 ft 113 kts 242°
2026-04-22 19:58 38.38942 14.16779 194 ft 113 kts 242°
2026-04-22 19:59 38.38568 14.15890 71 ft 113 kts 242°
2026-04-22 20:00 38.38273 14.15426 -4 ft 0 kts 146°
2026-04-22 20:00 38.38271 14.15427 -4 ft 0 kts 143°